Regional Weather Roundup
Issued by NWS

Home | Current Version | Previous Version | Graphics & Text | Print | Product List | Glossary On
Versions: 1 2 3 4 5 6 7 8 9 10 11 12 13 14 15 16 17 18 19 20 21 22 23 24 25 26 27 28 29 30 31 32 33 34 35 36 37 38 39 40 41 42 43 44 45 46 47 48 49 50
000
ASUS43 KLOT 212309
RWRIL

ILLINOIS REGIONAL WEATHER ROUNDUP
NATIONAL WEATHER SERVICE CHICAGO/ROMEOVILLE IL
600 PM CDT FRI JUL 21 2017

NOTE: "FAIR" INDICATES FEW OR NO CLOUDS BELOW 12,000 FEET WITH NO
SIGNIFICANT WEATHER AND/OR OBSTRUCTIONS TO VISIBILITY.

* THESE STATIONS ARE NOT UNDER NWS QUALITY CONTROL. THEY ALSO MAY NOT
  REPORT WEATHER SUCH AS PRECIPITATION OR FOG.

ILZ001-002-007-009-015-016-024-220000-
NORTHWEST ILLINOIS

CITY           SKY/WX    TMP DP  RH WIND       PRES   REMARKS
MOLINE         SUNNY     88  76  67 S5        29.81F HX  99
STERLING*      CLOUDY    81  76  84 E10       29.85F HX  87
SAVANNA*       MOSUNNY   82  76  82 N7        29.86R HX  89
$$

ILZ003-004-008-010-011-017-018-220000-
NORTH CENTRAL ILLINOIS

CITY           SKY/WX    TMP DP  RH WIND       PRES   REMARKS
ROCKFORD       CLOUDY    80  72  76 SE6       29.90F HX  84
FREEPORT*      CLOUDY    77  72  84 E8        29.90S
ROCHELLE*      CLOUDY    81  75  83 E8        29.89F HX  86
DE KALB*       PTSUNNY   78  71  79 E8        29.92S HX  81
PERU*          SUNNY     89  76  65 S9        29.87S HX 101
$$

ILZ005-006-012>014-019>023-220000-
NORTHEAST ILLINOIS

CITY           SKY/WX    TMP DP  RH WIND       PRES   REMARKS
CHICAGO-OHARE  CLOUDY    78  70  76 E14       29.90F HX  80
CHICAGO-MIDWAY CLOUDY    83  70  64 NE14      29.90F HX  87
AURORA         CLOUDY    81  72  74 E9        29.90F HX  85
LANSING*       CLOUDY    86  71  61 S6        29.91F HX  91
JOLIET*        MOSUNNY   87  78  75 SE7       29.89F HX 101
WAUKEGAN       CLOUDY    75  72  90 E7        29.91F
DUPAGE AIRPORT CLOUDY    79  72  79 E10       29.90F HX  82
WHEELING       CLOUDY    77  77 100 SE9       29.92F
MORRIS*        MOSUNNY   86  77  75 SE8       29.87F HX  98
ROMEOVILLE*    PTSUNNY   86  73  66 E7        29.90F HX  93
NORTHERLY ISL    N/A     75  70  84 NE9         N/A
$$

LMZ740>746-220000-
SOUTHERN LAKE MICHIGAN

STATION/POSITION SKY/WX   TEMP    WIND        PRES    VSBY  WAVE
                          AIR SEA DIR/SP/G                  HT/PER
                          (F)     (DEG/KT/KT) (MB)    (MI)  (FT/S)
SOUTHERN BUOY              74 74  360/  2/  4 1014.3          0
WILMETTE HARBOR            74 73  110/ 10/ 14   N/A           1/ 2
HARRISON CRIB              76      60/  9/ 10   N/A
BURNHAM HARBOR             77                   N/A
CALUMET HARBOR             77      50/  8/ 11 1013.0
BURNS HARBOR               84     190/ 10/ 12 1013.5F
MICHIGAN CITY              78     360/  9/ 10   N/A
MICHIGAN CITY 6N           77 77   40/  8/ 10   N/A           1
ST. JOSEPH                 76 77   40/  8/ 10 1013.9          1
$$

ILZ025>027-034>036-040-047-049-050-058-095>099-220000-
WEST-CENTRAL ILLINOIS

CITY           SKY/WX    TMP DP  RH WIND       PRES   REMARKS
QUINCY         SUNNY     96  72  45 S13       29.86S HX 104
GALESBURG*     SUNNY     89  77  68 S6        29.85S HX 101
MACOMB*        SUNNY     92  74  56 S7G17     29.86F HX 101
JACKSONVILLE*  SUNNY     94  71  47 S8        29.87S HX 101
PITTSFIELD*    SUNNY     94  72  47 S12G17    29.88S HX 102
$$

ILZ028>032-037-038-041>044-048-051>054-059>061-220000-
CENTRAL ILLINOIS

CITY           SKY/WX    TMP DP  RH WIND       PRES   REMARKS
PONTIAC        MOSUNNY   92  80  68 SW5       29.88F HX 109
BLOOMINGTON    MOSUNNY   92  76  59 S16       29.89F HX 104
DECATUR        SUNNY     93  75  55 SW13      29.88F HX 104
PEORIA         SUNNY     93  76  57 S13       29.87S HX 105
LACON*         SUNNY     91  76  62 S6        29.86R HX 103
LINCOLN*       SUNNY     94  80  64 S7        29.87F HX 112
SPRINGFIELD    SUNNY     95  74  50 SW8       29.87F HX 105
TAYLORVILLE    SUNNY     92  76  58 S8        29.88F HX 104
$$

ILZ033-039-045-046-055>057-062-063-220000-
EAST-CENTRAL ILLINOIS

CITY           SKY/WX    TMP DP  RH WIND       PRES   REMARKS
RANTOUL*       MOSUNNY   92  81  70 SW5       29.89F HX 111
MATTOON        TSTM      82  73  74 SW14G24   29.93R HX  87
PARIS*         MOSUNNY   87  78  75 SE3       29.92F HX 100
$$

ILZ079-100>102-220000-
SOUTHWEST ILLINOIS

CITY           SKY/WX    TMP DP  RH WIND       PRES   REMARKS
ALTON          PTSUNNY   95  77  55 SE6       29.88F HX 109
BELLEVILLE     SUNNY     97  74  47 SW10      29.89F HX 107
CAHOKIA*       MOSUNNY   97  72  44 S8        29.86F HX 105
SPARTA*        SUNNY     95  75  52 S10       29.91F HX 107
$$

ILZ064>066-069>071-074>076-080>082-084>086-088>090-092>094-220000-
SOUTH-CENTRAL ILLINOIS

CITY           SKY/WX    TMP DP  RH WIND       PRES   REMARKS
CARBONDALE     SUNNY     93  75  55 SW14      29.91F HX 104
CAIRO*         SUNNY     94  77  58 S5        29.92F HX 109
EFFINGHAM*     CLOUDY    94  77  57 S9        29.91F HX 107
MARION         MOSUNNY   93  77  59 SW12      29.92F HX 107
MT. VERNON     CLOUDY    97  78  54 S10       29.90F HX 114
CENTRALIA*     CLOUDY    97  76  51 SW8       29.89F HX 111
SALEM*         CLOUDY    94  75  53 S8        29.89F HX 105
METROPOLIS*    SUNNY     93  78  61 S5        29.93F HX 108
$$

ILZ067-068-072-073-078-083-087-091-220000-
SOUTHEAST ILLINOIS

CITY           SKY/WX    TMP DP  RH WIND       PRES   REMARKS
LAWRENCEVILLE  MOSUNNY   91  80  70 S6        29.90F HX 109
FLORA*         MOSUNNY   95  79  59 S10       29.90F HX 112
FAIRFIELD*     MOSUNNY   93  80  64 S3        29.89F HX 112
HARRISBURG*    SUNNY     94  79  61 SW6       29.91F HX 111
ROBINSON*      MOSUNNY   91  79  68 S5        29.91F HX 108
CARMI*         SUNNY     91  81  73 S6        29.90F HX 110
$$

ABBREVIATIONS USED IN REMARKS
   TC - TEMPERATURE IN CELSIUS
  WCI - WIND CHILL INDEX
   HX - HEAT INDEX
  VSB - VISIBILITY
$$





USA.gov is the U.S. government's official web portal to all federal, state and local government web resources and services.